Regional Weather Roundup
Issued by NWS

Home | Current Version | Previous Version | Text Only | Print | Product List | Glossary Off
Versions: 1 2 3 4 5 6 7 8 9 10 11 12 13 14 15 16 17 18 19 20 21 22 23 24 25 26 27 28 29 30 31 32 33 34 35 36 37 38 39 40 41 42 43 44 45 46 47 48 49 50

000
ASUS45 KTFX 191119
RWRMT
MONTANA HOURLY WEATHER ROUNDUP
NATIONAL WEATHER SERVICE GREAT FALLS MT
519 AM MDT SAT APR 19 2014

NOTE: "FAIR" INDICATES FEW OR NO CLOUDS BELOW 12000 FEET WITH NO
SIGNIFICANT WEATHER AND/OR OBSTRUCTIONS TO VISIBILITY.

* THESE STATIONS ARE NOT UNDER NWS QUALITY CONTROL. THEY DO NOT
   REPORT WEATHER SUCH AS PRECIPITATION OR FOG.

MTZ001>007-043-191200-
WEST OF THE DIVIDE
CITY           SKY/WX    TMP DP  RH WIND       PRES   REMARKS
KALISPELL      PTCLDY    28  23  81 NE3       29.98S
MISSOULA       CLEAR     28  21  75 CALM      30.03S
BUTTE          PTCLDY    21  16  81 CALM      30.00S
MULLAN PASS    PTCLDY    25  19  78 S8        29.92S WCI  16
* ESSEX        N/A       27  26  96 N2         N/A
* LINCOLN      N/A       33  17  52 S4G10      N/A
* LOOKOUT PASS N/A       23  22  96 S1         N/A
* POLSON       N/A       30  20  66 SE2        N/A
* SEELEY LAKE  N/A       21  19  92 N/A        N/A
* THOMP F APT  CLEAR     34  12  40 N/A        N/A
* YAAK HILL    N/A       29  27  92 N/A        N/A
$$

MTZ008-052>055-191200-
SOUTHWEST MONTANA
CITY           SKY/WX    TMP DP  RH WIND       PRES   REMARKS
BOZEMAN        PTCLDY    23  16  74 SE8       30.00R WCI  14
DILLON         PTCLDY    27  10  49 S8        30.00S WCI  19
W YELLOWSTONE  N/A       25  22  88 N1         N/A
* THREE FORKS  CLEAR     28  10  47 N/A        N/A
* BOULDER HILL N/A       32   5  32 S7         N/A   WCI  25
* MONIDA PASS  N/A       28  11  49 W2         N/A
* RAYNOLDS PAS N/A       26  13  58 S3         N/A
* WHITEHALL    N/A       31   8  38 SW4        N/A
* WISE RIVER   N/A       23  13  65 E2G8       N/A
$$

MTZ009>010-012-014-046-048-049-054-191200-
EAST SLOPES AND CENTRAL MONTANA
CITY           SKY/WX    TMP DP  RH WIND       PRES   REMARKS
CUT BANK       CLEAR     34  23  64 W15       29.88R WCI  24
GREAT FALLS    CLEAR     32  18  56 SW8       29.92R WCI  25
HELENA         PTCLDY    30  12  47 NW3       29.98S
MALMSTROM AFB  PTCLDY    34  18  52 S14       29.90R WCI  24
* CONRAD       CLEAR     34  23  64 N/A        N/A
* DEARBORN     N/A       41  14  33 S3G11      N/A
* EAST GLACIER N/A       33  20  59 W17G28     N/A   WCI  22
* MONARCH      N/A       33   5  30 SW12G19    N/A   WCI  24
* PENDROY      N/A       34  18  52 W8G14      N/A   WCI  27
* ROGERS PASS  N/A       31  14  49 SE8G19     N/A   WCI  24
* SAINT MARY   N/A       36  23  59 SW8G17     N/A   WCI  30
* SWEET GRASS  N/A       30  29  96 W8         N/A   WCI  22
* WHITE SULPH  N/A       32   9  38 E4G10      N/A
$$

MTZ011-013-016-021-035-040-045-047-050-051-191200-
NORTH CENTRAL MONTANA
CITY           SKY/WX    TMP DP  RH WIND       PRES   REMARKS
HAVRE          CLOUDY    39  32  76 W10       29.90S WCI  32
LEWISTOWN      CLEAR     32  18  56 SW12      29.91R WCI  23
* CHINOOK      CLEAR     37  32  82 W14       29.89R WCI  28
* FORT BENTON  PTCLDY    37  19  48 SW6       29.94R WCI  32
* CHESTER      N/A       32  29  89 SE3        N/A
* DENTON       N/A       35  17  48 SW10G15    N/A   WCI  27
* GEYSER       N/A       32  13  45 N2         N/A
* JUDITH GAP   N/A       32  11  41 W6G12      N/A   WCI  26
* LOMA         N/A       39  21  48 W9         N/A   WCI  33
$$

MTZ017>020-022>027-061-062-191200-
NORTHEAST MONTANA
CITY           SKY/WX    TMP DP  RH WIND       PRES   REMARKS
GLASGOW        MOCLDY    37  34  89 W16G26    29.81R WCI  28
GLENDIVE       CLEAR     36  25  64 SW10      29.84R WCI  29
JORDAN         CLEAR     39  23  53 W14       29.86R WCI  31
SIDNEY         FAIR      37  28  70 W10       29.80R WCI  30
WOLF POINT     PTCLDY    41  34  76 W21G30    29.79R
* BEAVER HILL  N/A       37  26  64 SW18G24    N/A   WCI  27
* CIRCLE       N/A       37  30  76 SW3G8      N/A
* LINDSAY DVD  N/A       40  22  49 SW24G33    N/A   WCI  30
* NAVAJO       N/A       37  34  89 W23G32     N/A   WCI  26
* SACO         N/A       38  33  82 W18G26     N/A   WCI  28
$$

MTZ028>042-056>058-191200-
SOUTHCENTRAL AND SOUTHEAST MONTANA
CITY           SKY/WX    TMP DP  RH WIND       PRES   REMARKS
BAKER          CLEAR     36  27  70 W13       29.87R WCI  27
BILLINGS       PTCLDY    41  12  30 W6        29.95R
LIVINGSTON     PTCLDY    36  10  34 W18       29.94S WCI  26
MILES CITY     CLEAR     37  25  62 W12       29.90R WCI  29
* EKALAKA APT  CLEAR     37  18  46 SW9       29.88R WCI  30
* LAUREL APT   PTCLDY    41   9  27 N/A        N/A
* ROUNDUP APT  CLEAR     41  12  30 W11G18     N/A
* HYSHAM       N/A       37  12  36 SW1        N/A
* LAME DEER    N/A       40  11  30 W11G16     N/A   WCI  33
* REED POINT   N/A       40  14  35 W6G11      N/A   WCI  36
* ROSCOE HILL  N/A       33  13  44 SE9        N/A   WCI  25
$$

REGIONAL REPORTS...DAKOTAS
CITY           SKY/WX    TMP DP  RH WIND       PRES   REMARKS
WILLISTON      PTCLDY    34  28  79 SW8       29.74R WCI  27
DICKINSON      CLEAR     37  27  67 W14       29.79S WCI  28
CROSBY         MOCLDY    36  36 100 W17       29.68S WCI  26
TIOGA          CLEAR     36  36 100 SW15      29.72F WCI  27
WATFORD CITY   CLEAR     34  32  92 SW8       29.74S WCI  27
BISMARCK       PTCLDY    43  36  76 W14       29.81R
GRAND FORKS    CLOUDY    46  36  68 S13       29.71F
FARGO          MOCLDY    50  37  61 SE25G39   29.75R
BUFFALO SD     CLEAR     34  27  76 SW10      29.84R WCI  26
RAPID CITY     MOCLDY    45  18  34 NW14      29.93R
$$

REGIONAL REPORTS...WYOMING/IDAHO/WASHINGTON
CITY           SKY/WX    TMP DP  RH WIND       PRES   REMARKS
GILLETTE       CLEAR     27  21  78 S5        29.98R WCI  21
SHERIDAN       PTCLDY    34  25  70 S5        29.97R WCI  29
CODY           PTCLDY    34  21  59 CALM      29.96R
YELLOWSTONE LA PTCLDY    19  16  88 CALM      30.05S
SALMON         PTCLDY    27  18  69 CALM      30.05R
MULLAN PASS    PTCLDY    25  19  78 S8        29.92S WCI  16
SAND POINT     CLEAR     36  32  85 N7        29.97F WCI  30
SPOKANE        CLEAR     37  27  67 SE7       29.93F WCI  32
$$

REGIONAL REPORTS...ALBERTA
CITY           SKY/WX    TMP DP  RH WIND       PRES   REMARKS
CALGARY        PTCLDY    30  28  92 S6        29.83S WCI  24
LETHBRIDGE     CLEAR     27  27 100 S9        29.87F WCI  18
MEDICINE HAT   CLOUDY    34  34 100 W13       29.88R WCI  25
EDMONTON       FAIR      23  21  92 SE6       29.80S WCI  16
WATERTON GATE  N/A       37  25  62 SW16G25    N/A   WCI  28
CARDSTON       N/A       32  25  75 E1         N/A
MILK RIVER     N/A       23  21  92 NW6        N/A   WCI  16
$$

REGIONAL REPORTS...SASKATCHEWAN
CITY           SKY/WX    TMP DP  RH WIND       PRES   REMARKS
SWIFT CURRENT  LGT SNOW  32  30  92 NW24G31   29.74R VSB 3    WCI  19
REGINA         LGT RAIN  36  36 100 W15G23    29.62R WCI  27
VAL MARIE      N/A       36  30  79 NW23G31    N/A   WCI  24
ASSINIBOIA     N/A       39  36  89 W18        N/A   WCI  30
CORONACH       N/A       37  34  89 W18        N/A   WCI  27

$$




USA.gov is the U.S. government's official web portal to all federal, state and local government web resources and services.